sat.trackr.live / text

‹ back to catalog

WGS F3 (USA 211)

NORAD 36108 · 2009-068A

PAYLOAD ACTIVE UNKNOWN

§ Identity

Operator
Country
US
Launch date
2009-12-06
Launch site
AFETR
Launch vehicle
Mass (kg)
RCS (m²)
10.00

Purposes: comms

External: N2YO · Heavens-Above · Gunter

§ Orbital elements

Epoch: 2026-09-19T02:53:47.916672Z

Period
1,436.07 min
Inclination
0.3097°
Eccentricity
0.0000649
Mean motion
1.00273592 rev/d
Perigee alt
35,783.4 km
Apogee alt
35,788.8 km
Semi-major
42,164.2 km
B*
0.0000e+0
RAAN
84.9481°
Arg perigee
29.3819°
Mean anomaly
164.8832°
Rev number
4,753

§ Raw data

WGS F3 (USA 211)1 36108U 09068A   26262.12069348  .00000016  00000+0  00000+0 0  99972 36108   0.3097  84.9481 0000649  29.3819 164.8832  1.00273592 47534

JSON: /api/v1/satellites/36108 · /tle

For live sub-satellite position, see the globe view (requires WebGL).

§ Visibility from observer

Set your observer location to see the next 7 days of passes ≥ 10°. The values pass through the URL so the page stays shareable.

No JS? Fill the form by hand. The geolocation button needs JavaScript.